www.pogodaiklimat.ru
Время
и дата
17:51 28.01
18:51 28.01
19:51 28.01
20:51 28.01
21:51 28.01
22:51 28.01
23:51 28.01
00:51 29.01
01:51 29.01
02:51 29.01
03:51 29.01
04:51 29.01
05:51 29.01
06:51 29.01
07:51 29.01
08:51 29.01
09:51 29.01
10:51 29.01
11:51 29.01
12:51 29.01
13:51 29.01
14:51 29.01
15:51 29.01
16:51 29.01
17:51 29.01
18:51 29.01
19:51 29.01
20:51 29.01
21:51 29.01
22:51 29.01
23:51 29.01
00:51 30.01
01:51 30.01
02:51 30.01
03:51 30.01
04:51 30.01
05:51 30.01
06:51 30.01
07:51 30.01
08:51 30.01
09:51 30.01
10:51 30.01
11:51 30.01
12:51 30.01
13:51 30.01
14:51 30.01
15:51 30.01
16:51 30.01
Ветер
(напр.,м/с)
Видим. Явления Облачность Т
(С)
Тd
(С)
f
(%)
Тe
(С)
Тes
(С)
Комфортность P
(гПа)
Po
(гПа)
Тmin
(С)
Tmax
(С)
R
(мм)
R24
(мм)
S
(см)
ЮЗ 2 16 км ясно +7.2 -5.6 40 +6 +6 1024.5 1022.4
ЮЗ 3 16 км 8/0 5100 m
[Ac Ci]
+5.6 -4.4 49 +3 +3 1025.2 1022.8 +5.6 +10.6
Ю 2 16 км 8/0 5100 m
[Ac Ci]
+3.9 -3.3 59 +2 +2 1025.7 1023.4
Ю 2 16 км 8/0 6000 m
[Ac]
+3.3 -2.8 64 +1 +1 1026.3 1024.1
Ю 2 16 км 8/0 4200 m
[Ac]
+2.8 -2.8 67 0 0 1026.6 1024.4
ЮЗ 2 16 км 5/0 3600 m
[Ac]
+2.8 -2.8 67 0 0 1026.9 1024.4
штиль 0 16 км 8/0 3900 m
[Ac]
+1.7 -2.8 72 +1 +1 1026.8 1024.4
штиль 0 16 км 5/0 3600 m
[Ac]
+0.6 -2.8 78 0 0 1026.7 1024.4 +5.0
штиль 0 16 км ясно 0.0 -2.8 81 -1 -1 1027.0 1024.8
ЮЗ 2 16 км ясно 0.0 -2.2 85 -4 -4 1027.2 1025.1
штиль 0 16 км ясно +1.1 -1.7 82 0 0 1027.3 1025.1
штиль 0 16 км ясно -0.6 -2.2 89 -2 -2 1027.3 1025.1
штиль 0 16 км 8/0 4500 m
[Ac Ci]
-1.1 -2.2 92 -2 -2 1027.1 1024.8
штиль 0 16 км 8/0 4500 m
[Ac Ci]
-0.6 -2.2 89 -2 -2 1027.3 1025.1 -1.7 +1.1
штиль 0 16 км 10/0 4500 m
[Ac Ci]
-0.6 -2.2 89 -2 -2 1027.3 1025.1
штиль 0 16 км 10/0 4500 m
[Ac Ci]
+2.2 +0.6 89 +1 +2 1026.8 1024.4
Ю 3 16 км 10/0 4500 m
[Ac Ci]
+6.7 +4.4 85 +4 +5 1026.4 1024.1
Ю 3 16 км 10/0 4500 m
[Ac Ci]
+9.4 +3.3 66 +7 +9 1025.2 1022.8
Ю 5 16 км 10/0 4500 m
[Ac Ci]
+10.0 +3.9 66 +7 +8 1023.7 1021.4
Ю 6 16 км 10/0 4500 m
[Ac Ci]
+10.0 +5.6 74 +7 +8 1022.1 1019.7 -1.1 +10.6
Ю 8 16 км 10/0 4500 m
[Ac]
+11.1 +4.4 63 +8 +8 1021.3 1019.0
Ю 7 16 км 10/8 1500 m
[Ac]
+10.6 +2.8 58 +7 +7 1020.5 1018.4
ЮЗ 6 16 км слабый дождь 10/10 1320 m
[Ns]
+10.0 +3.9 66 +7 +7 1020.5 1018.4
ЮЗ 5 16 км слабый дождь 10/8 1290 m
[Ac Ns]
+9.4 +5.0 74 +6 +6 1020.2 1018.0
ЮЗ 6 16 км 10/2 1800 m
[Ac]
+8.9 +3.9 71 +5 +5 1019.7 1017.3
ЮЗ 5 16 км 10/0 2400 m
[Ac]
+9.4 +1.1 56 +6 +6 1019.0 1016.7 +8.9 +11.1
ЮЗ 4 16 км 10/0 2400 m
[Ac]
+9.4 +0.6 54 +7 +7 1019.1 1016.7
ЮЗ 4 16 км 5/0 2550 m
[Ac]
+8.3 +0.6 58 +6 +6 1018.7 1016.3
ЮЗ 4 16 км 10/0 3300 m
[Ac]
+7.8 +1.1 63 +5 +5 1019.0 1016.7
ЮЗ 3 16 км 8/0 2400 m
[Ac]
+7.8 +1.7 65 +5 +5 1019.2 1017.0
ЮЗ 3 16 км 8/0 3000 m
[Ac]
+6.7 +1.7 70 +4 +4 1019.1 1016.7
З 4 16 км 10/0 3000 m
[Ac]
+6.1 +1.7 73 +2 +2 1018.9 1016.7 +6.1 +9.4
З 4 16 км ясно +5.6 +1.1 73 +2 +2 1019.4 1017.3
З 3 16 км ясно +5.0 +1.1 76 +2 +2 1019.9 1017.7
З 4 16 км ясно +3.9 +0.6 79 0 0 1020.0 1017.7
З 4 16 км ясно +3.9 +0.6 79 0 0 1020.1 1018.0
З 2 16 км ясно +2.8 0.0 82 0 0 1021.0 1018.7
штиль 0 16 км 8/0 7500 m
[Ci]
+2.2 0.0 85 +1 +1 1021.6 1019.4 +1.7 +6.1
З 2 16 км 10/0 7500 m
[Ci]
+2.2 +0.6 89 -1 -1 1021.8 1019.7
штиль 0 16 км 8/0 6900 m
[Ci]
+4.4 +1.7 83 +3 +4 1022.1 1019.7
Ю 2 16 км 8/0 6300 m
[Ci]
+5.6 +1.7 76 +3 +5 1022.3 1020.1
З 2 16 км 5/2 600 m
[Ci]
+6.7 +1.7 70 +5 +8 1022.6 1020.4
штиль 0 16 км 2/2 750 m
[Ci]
+8.9 +1.7 61 +8 +14 1021.1 1019.0
нст 2 16 км 2/2 900 m
[Ac Ci]
+9.4 +1.7 59 +8 +13 1020.0 1017.7 +1.7 +10.0
ЮВ 4 16 км 5/2 900 m
[Ci]
+10.0 +2.2 58 +8 +10 1018.9 1016.7
Ю 4 16 км 8/2 1380 m
[Ci]
+9.4 +2.2 61 +7 +8 1018.7 1016.3
Ю 5 16 км 8/2 1380 m
[Ci]
+8.9 +2.2 63 +6 +6 1018.5 1016.3
Ю 2 16 км 5/2 1380 m
[Ci]
+6.7 +2.2 73 +5 +5 1018.7 1016.3
Местоположение метеостанции Theodore Francis Green State Airport: широта 41.7219 долгота -71.4325 высота над уровнем моря 18 м.
В архиве по умолчанию представлена погода в Провиденсе за последние 1-2 суток. Обновление информации о фактической погоде в базе происходит ежечасно! Архивные данные за месяц целиком и за предыдущие месяцы Вы можете получить, выбрав интересующий диапазон дат из раскрывающегося списка и нажав кнопку "Ввод!".
Внимание! Архив погоды МЕТАР в базе сайта по станциям, не включенным в климатический монитор, хранится не более 60 дней. Нет смысла пытаться выбрать более раннюю дату.
*Определитесь, кто Вы:
Внимание! Время в таблицах - местное (без учета летнего времени). Для получения всемирного времени необходимо вычесть поправку, которая равна -5 ч.
Смотрите также архив погоды в соседних городах и на ближайших метеорологических станциях:
Партнеры нашего сайта:      
Пояснения к столбцам:
  • Ветер - указаны скорость ветра в м/с - средняя за 10 мин, порывы в срок и между сроками (в фигурных скобках) и направление, откуда дует ветер: С - северный,
  • СВ - северо-восточный, В - восточный, ЮВ - юго-восточный, Ю - южный, ЮЗ - юго-западный, З - западный, СЗ - северо-западный.
  • Видимость - горизонтальная дальность видимости в метрах или километрах. При видимости от 1 до 10 км при отсутствии осадков обычно наблюдается дымка, при ухудшении видимости до 1 км и менее - туман. В сухую погоду видимость может ухудшаться дымом, пылью или мглою.
  • Явления - указаны атмосферные явления, наблюдавшиеся в срок или в последний час перед сроком; фигурными скобками обозначены явления, наблюдавшиеся между сроками (за 1-3 часа до срока); квадратными скобками обозначены град или гололедные отложения с указанием их диаметра в мм.
  • Облачность - указаны через наклонную черту общая и нижняя облачность в баллах и высота нижней границы облаков в метрах; квадратными скобками обозначены формы облаков: Ci - перистые, Cs - перисто-слоистые, Cc - перисто-кучевые, Ac - высококучевые, As - высокослоистые, Sc - слоисто-кучевые, Ns - слоисто-дождевые, Cu - кучевые, Cb - кучево-дождевые. Подробнее классификацию облаков см. в Атласе облаков (PDF).
  • T - Температура воздуха - температура, измеренная на высоте 2 м над землей.
  • Td - Температура точки росы - температура, при понижении до которой содержащийся в воздухе водяной пар достигнет насыщения.
  • f - Относительная влажность воздуха - влажноcть воздуха, измеренная на высоте 2 м над землей.
  • Te - Эффективная температура - температура, которую ощущает одетый по сезону человек в тени. Характеристика душности погоды. При расчете учитывается влияние влажности воздуха и скорости ветра на теплоощущения человека.
  • Tes - Эффективная температура на солнце - температура, которую ощущает человек, с поправкой на солнечный нагрев. Характеристика знойности погоды. Зависит от высоты солнца над горизонтом, облачности и скорости ветра. Ночью, в пасмурную погоду, а также при ветре 12 м/с и более поправка равна нулю.
  • P - Атмосферное давление - приведенное к уровню моря атмосферное давление.
  • Po - Атмосферное давление - измеренное на уровне метеостанции атмосферное давление.
  • Tmin - Минимальная температура - минимум температуры воздуха на высоте 2 м над землей.
  • Tmax - Максимальная температура - максимум температуры воздуха на высоте 2 м над землей.
  • R - Количество осадков - Количество выпавших осадков за период времени, мм. При наведении курсора мыши на число - период времени, за который выпало указанное количество осадков.
  • R24 - Количество осадков - Количество выпавших осадков за 24 часа, мм.
  • S - Снежный покров - Высота снежного покрова, см. При наведении курсора мыши на число - состояние снежного покрова и степень покрытия местности в баллах.